date,time,DOY,Ta_1_1_1,RH_1_1_1,LWin_1_1_1,LWout_1_1_1,SWin_1_1_1,SWout_1_1_1,PPFD_1_1_1,SWC_1_1_1,Ts_1_1_1
[yyyy-mm-dd],[HH:MM],[ddd.ddd],[K],[%],[W+1m-2],[W+1m-2],[W+1m-2],[W+1m-2],[µmol+1m-2s-1],[m+3m-3],[K]
2013-01-06,00:30,6.020,268.70800000000003,87.195333333333323,-6.0066666666666668,-9.9433333333333334,-0.41566666666666674,-0.60066666666666679,8.00000000000000017E-003,-9999.0,279.90999999999991
2013-01-06,01:00,6.041,268.90633333333329,89.341333333333310,-5.3733333333333348,-9.0158333333333349,-0.35366666666666685,-0.63600000000000001,1.30000000000000046E-002,-9999.0,279.90999999999991
2013-01-06,01:30,6.062,268.98800000000000,92.278666666666666,-5.1053333333333342,-8.2886666666666660,-0.35633333333333339,-0.59900000000000009,4.66666666666666619E-003,-9999.0,279.90999999999991
2013-01-06,02:00,6.083,269.05033333333336,93.012333333333316,-5.0866666666666687,-8.6486666666666672,-0.35466666666666663,-0.50266666666666660,4.00000000000000008E-003,-9999.0,279.90999999999991
2013-01-06,02:30,6.104,269.16199999999998,92.644000000000005,-5.1633333333333331,-8.7953333333333319,-0.35799999999999993,-0.48466666666666663,4.33333333333333313E-003,-9999.0,279.90999999999991
2013-01-06,03:00,6.124,269.23366666666675,93.661000000000016,-5.3376666666666654,-8.8783333333333321,-0.40800000000000003,-0.61666666666666670,1.33333333333333329E-003,-9999.0,279.90999999999991
2013-01-06,03:30,6.145,269.21499999999997,92.640000000000001,-5.0603333333333333,-9.6274074074074054,-0.33000000000000002,-0.68133333333333346,5.33333333333333402E-003,-9999.0,279.90999999999991
2013-01-06,04:00,6.166,269.00733333333335,92.203666666666649,-5.2380000000000004,-9999.0,-0.32766666666666661,-0.79133333333333367,6.66666666666666623E-003,-9999.0,279.90999999999991
2013-01-06,04:30,6.187,268.81300000000005,92.307999999999993,-5.1910000000000016,-9999.0,-0.30666666666666664,-0.75833333333333341,8.33333333333333322E-003,-9999.0,279.90999999999991
2013-01-06,05:00,6.208,268.58500000000009,91.638999999999996,-5.2033333333333331,-9999.0,-0.24533333333333338,-0.88500000000000001,4.99999999999999924E-003,-9999.0,279.90999999999991
2013-01-06,05:30,6.229,268.52533333333344,91.516333333333321,-5.1400000000000006,-9.4386363636363626,-0.35200000000000009,-0.51133333333333331,7.00000000000000015E-003,-9999.0,279.90999999999991
2013-01-06,06:00,6.249,268.47866666666664,90.262999999999977,-4.9300000000000006,-9.9399999999999995,-0.29999999999999999,-0.60333333333333339,7.00000000000000188E-003,-9999.0,279.90999999999991
2013-01-06,06:30,6.270,268.29100000000000,91.370333333333349,-4.3766666666666678,-9.1823809523809494,-0.44066666666666671,-0.70533333333333359,5.00000000000000097E-003,-9999.0,279.90999999999991
2013-01-06,07:00,6.291,268.07566666666673,93.418999999999997,-4.1293333333333324,-8.2566666666666677,-0.79633333333333334,-8.53333333333333166E-002,4.00000000000000008E-003,-9999.0,279.90999999999991
2013-01-06,07:30,6.312,267.91300000000001,93.735999999999976,-4.1406666666666672,-7.4763333333333337,-0.45000000000000012,-0.18300000000000000,0.39500000000000007,-9999.0,279.90999999999991
2013-01-06,08:00,6.333,267.75500000000005,92.753666666666689,-4.7163333333333330,-9.5942857142857143,0.59900000000000009,3.7380000000000009,10.407999999999998,-9999.0,279.90999999999991
2013-01-06,08:30,6.354,267.66533333333325,92.950000000000003,-4.5936666666666657,-9.0341666666666658,2.8536666666666664,14.622999999999998,31.433333333333337,-9999.0,279.90999999999991
2013-01-06,09:00,6.374,267.77233333333334,92.576333333333338,-4.7386666666666653,-8.5433333333333348,8.4816666666666656,41.121000000000002,82.454333333333324,-9999.0,279.90999999999991
2013-01-06,09:30,6.395,267.82666666666665,90.794333333333327,-4.7136666666666667,-9999.0,14.326333333333334,69.518333333333331,139.89533333333333,-9999.0,279.90999999999991
2013-01-06,10:00,6.416,267.71533333333332,88.061666666666667,-4.8546666666666658,-9999.0,15.940666666666667,76.791666666666671,156.68533333333329,-9999.0,279.90999999999991
2013-01-06,10:30,6.437,267.61366666666669,87.463999999999999,-4.8450000000000006,-9999.0,16.178999999999998,75.795666666666662,158.86266666666671,-9999.0,279.90999999999991
2013-01-06,11:00,6.458,267.58666666666676,85.516999999999982,-4.4213333333333340,-9999.0,28.789333333333332,135.26033333333334,273.06766666666670,-9999.0,279.90999999999991
2013-01-06,11:30,6.479,267.60999999999996,83.812333333333314,-5.1590000000000007,-9999.0,19.777666666666661,92.002333333333326,193.68466666666669,-9999.0,279.90999999999991
2013-01-06,12:00,6.499,267.47433333333339,83.473333333333329,-4.8666666666666663,-9999.0,22.683999999999990,106.65733333333336,221.99799999999999,-9999.0,279.90999999999991
2013-01-06,12:30,6.520,267.41400000000010,82.335666666666654,-4.6969999999999983,-9999.0,21.925333333333334,103.46633333333331,215.71999999999997,-9999.0,279.90999999999991
2013-01-06,13:00,6.541,267.44633333333337,80.838000000000008,-5.0756666666666668,-9999.0,23.984000000000002,113.80266666666667,235.94000000000000,-9999.0,279.90999999999991
2013-01-06,13:30,6.562,267.43366666666662,79.769999999999996,-4.7173333333333334,-9999.0,19.273000000000000,91.744999999999990,191.77266666666665,-9999.0,279.90999999999991
2013-01-06,14:00,6.583,267.56633333333349,79.204666666666654,-5.5949999999999998,-9999.0,15.400333333333334,74.395333333333312,157.17366666666666,-9999.0,279.90999999999991
2013-01-06,14:30,6.604,267.59966666666668,80.205333333333343,-5.2693333333333330,-9999.0,11.472999999999997,55.834333333333333,119.52433333333330,-9999.0,279.90999999999991
2013-01-06,15:00,6.624,267.47800000000001,82.490666666666655,-6.0616666666666656,-9999.0,8.2633333333333319,41.753666666666660,90.031666666666666,-9999.0,279.90999999999991
2013-01-06,15:30,6.645,267.38700000000006,80.572333333333347,-5.6919999999999984,-9999.0,6.5556666666666681,33.299666666666674,70.554666666666662,-9999.0,279.90999999999991
2013-01-06,16:00,6.666,267.18366666666662,84.037666666666667,-6.1293333333333351,-9999.0,2.0316666666666672,12.257666666666667,28.822333333333333,-9999.0,279.90999999999991
2013-01-06,16:30,6.687,267.07566666666662,85.433333333333337,-6.5126666666666662,-9999.0,0.59933333333333327,4.4773333333333332,10.971333333333336,-9999.0,279.90999999999991
2013-01-06,17:00,6.708,267.08066666666684,85.194000000000003,-6.9256666666666673,-9999.0,-0.68733333333333324,-0.76133333333333331,0.93133333333333346,-9999.0,279.90999999999991
2013-01-06,17:30,6.729,267.05466666666672,84.133666666666642,-6.6883333333333326,-9999.0,-0.71866666666666645,-1.2323333333333333,2.30000000000000066E-002,-9999.0,279.90999999999991
2013-01-06,18:00,6.749,266.99833333333333,83.625666666666660,-8.1690000000000005,-9999.0,-0.59066666666666667,-2.2396666666666665,1.23333333333333368E-002,-9999.0,279.90999999999991
2013-01-06,18:30,6.770,266.55533333333341,84.317000000000007,-9.9100000000000001,-9999.0,-4.43333333333333149E-002,-4.3420000000000005,9.66666666666666716E-003,-9999.0,279.90999999999991
2013-01-06,19:00,6.791,266.24000000000007,83.527333333333360,-9999.0,-9999.0,9.26666666666666333E-002,-3.8769999999999998,1.20000000000000037E-002,-9999.0,279.90999999999991
2013-01-06,19:30,6.812,265.70566666666662,84.947666666666677,-9999.0,-9999.0,7.46666666666666590E-002,-3.6403333333333330,6.33333333333333318E-003,-9999.0,279.90999999999991
2013-01-06,20:00,6.833,265.22566666666665,86.497333333333330,-9.6176923076923106,-9999.0,5.36666666666666750E-002,-3.2689999999999992,9.33333333333333411E-003,-9999.0,279.90999999999991
2013-01-06,20:30,6.854,264.90199999999999,86.959999999999994,-9.6603571428571460,-9999.0,0.13766666666666666,-3.2376666666666667,1.23333333333333333E-002,-9999.0,279.90999999999991
2013-01-06,21:00,6.874,264.97500000000008,85.811999999999983,-9.1936666666666671,-9999.0,0.20599999999999999,-2.7070000000000003,9.33333333333333411E-003,-9999.0,279.90999999999991
2013-01-06,21:30,6.895,265.08900000000006,85.404666666666643,-8.1226666666666674,-9999.0,-2.76666666666666693E-002,-2.0003333333333329,1.10000000000000028E-002,-9999.0,279.90999999999991
2013-01-06,22:00,6.916,265.00100000000003,85.363666666666674,-8.4836666666666680,-9999.0,5.53333333333333385E-002,-2.6216666666666666,8.66666666666666627E-003,-9999.0,279.90999999999991
2013-01-06,22:30,6.937,264.83533333333338,85.041333333333341,-8.6726666666666663,-9999.0,0.16866666666666663,-3.0059999999999993,9.00000000000000105E-003,-9999.0,279.90999999999991
2013-01-06,23:00,6.958,264.41766666666666,85.801999999999978,-8.6006666666666671,-9999.0,0.19200000000000000,-3.2849999999999997,1.03333333333333350E-002,-9999.0,279.90999999999991
2013-01-06,23:30,6.979,264.01566666666673,85.974666666666664,-8.3599999999999977,-9999.0,0.18366666666666670,-3.2123333333333326,9.33333333333333584E-003,-9999.0,279.90999999999991
2013-01-07,00:00,7.000,263.47600000000006,85.539000000000016,-7.7070000000000016,-9999.0,5.83333333333333412E-002,-2.7253333333333325,9.00000000000000105E-003,-9999.0,279.90999999999991
